Regional Weather Roundup
Issued by NWS Charleston, SC

Current Version | Previous Version | Graphics & Text | Print | Product List | Glossary On
Versions: 1 2 3 4 5 6 7 8 9 10 11 12 13 14 15 16 17 18 19 20 21 22 23 24 25 26 27 28 29 30 31 32 33 34 35 36 37 38 39 40 41 42 43 44 45 46 47 48 49 50
000
ASUS42 KCHS 300228
RWRCHS

REGIONAL WEATHER ROUNDUP
NATIONAL WEATHER SERVICE CHARLESTON SC
1000 PM EDT THU SEP 29 2016

NOTE: "FAIR" INDICATES FEW OR NO CLOUDS BELOW 12,000 FEET WITH NO
SIGNIFICANT WEATHER AND/OR OBSTRUCTIONS TO VISIBILITY.

NOT ALL STATIONS ARE QUALITY CONTROLLED. USE DATA WITH CAUTION...
ESPECIALLY DEWPOINT OBSERVATIONS.

SCZ027-030-031-034>040-042>050-300300-
...SOUTHEAST SOUTH CAROLINA...

CITY           SKY/WX    TMP DP  RH WIND       PRES   REMARKS
N CHARLESTON   PTCLDY    78  72  81 S6        29.97S
WATERFRONT PRK   N/A     80  77  90 S7        29.95S
MOUNT PLEASANT FAIR      77  75  94 CALM      29.98S
JOHNS ISLAND   FAIR      79  77  94 S8        29.98S
PINOPOLIS        N/A     77  73  88 VRB2      29.90S
MONCKS CORNER  FAIR      72  68  88 CALM      29.98R
SUMMERVILLE    NOT AVBL
BEAUFORT MCAS  PTCLDY    81  75  82 S6        29.97R
BEAUFORT ARPT  FAIR      79  75  89 S13G18    29.97R
HILTON HEAD IS PTCLDY    81  77  89 S10       29.99R
WALTERBORO     PTCLDY    77  77 100 S3        29.98R THUNDER
ALLENDALE      FAIR      73  68  83 S3        29.95S

...SOUTHERN MIDLANDS AND PEE DEE...

CITY           SKY/WX    TMP DP  RH WIND       PRES   REMARKS
GEORGETOWN     FAIR      73  72  94 SE3       30.00R
KINGSTREE        N/A     70  68  94 E3        29.97F
ORANGEBURG     CLOUDY    72  66  81 S3        29.97R
BARNWELL       NOT AVBL
AIKEN          CLOUDY    72  54  53 NW5       30.01R
MANNING        FAIR      72  68  88 CALM      29.97S
COLUMBIA       MOCLDY    75  60  59 NE5       29.94S
SUMTER         CLEAR     72  69  89 E3        29.94F
FLORENCE       CLEAR     71  67  87 SE5       29.99R
MYRTLE BEACH   CLEAR     79  66  65 S9        30.01R
N MYRTLE BEACH CLEAR     78  72  81 S7        29.99S

$$

GAZ063-065-086>088-099>101-113>116-118-119-134>141-150-300300-
...SOUTHEAST GEORGIA...

CITY           SKY/WX    TMP DP  RH WIND       PRES   REMARKS
SAVANNAH ARPT  CLOUDY    70  67  90 SE7       29.98F
HUNTER AAF     CLOUDY    75  72  88 NW18      29.96R
FORT STEWART   CLEAR     76  73  90 CALM      29.95R
STATESBORO     CLEAR     77  73  86 S8        29.97R
SYLVANIA       NOT AVBL
CLAXTON        FAIR      74  74 100 E5        29.97R

...CSRA...CENTRAL AND FAR SOUTHEAST GEORGIA...

CITY           SKY/WX    TMP DP  RH WIND       PRES   REMARKS
THOMSON        CLEAR     72  54  52 CALM      30.04R
AUGUSTA-BUSH   PTCLDY    76  53  44 NW10      29.96R
AUGUSTA-DANIEL PTCLDY    77  49  37 NW9       29.98R
SWAINSBORO     FAIR      73  57  56 NW6       29.98S
VIDALIA        CLEAR     73  66  78 W3        29.97S
EASTMAN        FAIR      75  46  35 CALM      30.02R
HAZLEHURST     FAIR      75  66  72 N3        29.97S
ALMA           CLEAR     69  67  93 CALM      29.97R
WAYCROSS       CLEAR     76  72  89 SW5       29.98R
JESUP          FAIR      77  77 100 CALM      29.98R
BAXLEY         FAIR      72  70  94 CALM      29.97S
BRUNSWICK      PTCLDY    81  77  89 S8        29.98R
SAINT SIMONS   CLEAR     82  73  74 S10       29.97R

$$

SCZ027-028-034-036>038-045-046-048>050-GAZ119-141-300300-
...LAKE AND SUPPLEMENTAL COASTAL OBSERVATIONS...

STATION/POSITION TIME  TEMP    WIND        PRES    WAVE   SWELL
                       AIR SEA DIR/SP/G            HT/PER HT/PER/DIR
                 (UTC) (F)     (DEG/KT/KT) (MB)    (FT/S) (FT/S/D)
WINYAH BAY       0145   79     190/  5     1014.0F
LAKE MURRAY      0120   81     150/ 10/ 12 1013.5
ACE BASIN NERRS  0145   80        CALM     1015.0S
FORT PULASKI     0200   81 82  170/  5/ 11 1015.6
SAPELO ISLAND    0130   81     170/ 11     1015.0S

$$

ANZ835-935-AMZ111-154-330-350-352-354-370-450-454-472-300300-
...C-MAN AND BUOY OBSERVATIONS...

STATION/POSITION TIME  TEMP    WIND        PRES    WAVE   SWELL
                       AIR SEA DIR/SP/G            HT/PER HT/PER/DIR
                 (UTC) (F)     (DEG/KT/KT) (MB)    (FT/S) (FT/S/D)
BUOY 41004       0150   81 82  190/ 12/ 16 1015.2R   3/ 5   2/110/11
BUOY 41008       0150   82 82  170/ 17/ 23 1014.6R   3/ 4   2/ 80/11
FOLLY BEACH CMAN 0200   81     180/ 14/ 16 1015.2R
CAPERS NEARSHORE 0108   81 81  210/ 12/ 16 1015.0R
FRIPP NEARSHORE  0108   81 81  180/ 16/ 21 1014.7R


STATION/POSITION TIME  TEMP    WIND        PRES    WAVE   SWELL
                       AIR SEA DIR/SP/G            HT/PER HT/PER/DIR
                 (UTC) (F)     (DEG/KT/KT) (MB)    (FT/S) (FT/S/D)
5E ST. MARYS GA  0201      82                N/A     3/ 4   2/100/11
FRYING PAN BUOY  0210   79 82  170/ 12/ 14 1016.5
BUOY 41025       0150   80 78  170/ 14/ 16 1016.8S   3/10   3/ 90/10
CAPE LOOKOUT NC  0200   79     160/ 14/ 15 1016.9R
BUOY 41002       0150   81 83  210/ 12/ 16 1018.3R   4/10   3/ 50/10
BUOY 41010       NOT AVBL
ST AUGUSTINE FL  0200   78 83  210/  7/  9 1017.0R


$$




USA.gov is the U.S. government's official web portal to all federal, state and local government web resources and services.